When you browse on this site, cookies collect data to enhance your experience and personalize the content and advertising you see.
Visit our Privacy Policy to learn more. By continuing to use the site, you agree to this use of cookies and data.
  • In Hungary
  • List of Countries
  • For 7 days
  • Water Temperature
  • Satellite Maps
  • Weather Map
  • News
  • Weather Widgets
  • user-avatar
    Login

    Hourly Weather Honggang

    Today, 19 December, Wednesday

    Time Temperature Precipitation Wind Pressure Humidity
    00:00 -14°C° 0 mm 4 mps 744 mmHg 74%
    01:00 -13°C° 0 mm 3 mps 744 mmHg 76%
    02:00 -14°C° 0 mm 3 mps 745 mmHg 78%
    03:00 -14°C° 0 mm 3 mps 745 mmHg 79%
    04:00 -14°C° 0 mm 3 mps 745 mmHg 79%
    05:00 -14°C° 0 mm 3 mps 745 mmHg 80%
    06:00 -14°C° 0 mm 3 mps 746 mmHg 80%
    07:00 -13°C° 0 mm 2 mps 746 mmHg 81%
    08:00 -13°C° 0 mm 2 mps 747 mmHg 81%
    09:00 -12°C° 0 mm 2 mps 747 mmHg 76%
    10:00 -10°C° 0 mm 2 mps 747 mmHg 71%
    11:00 -9°C° 0 mm 2 mps 748 mmHg 65%
    12:00 -8°C° 0 mm 2 mps 748 mmHg 64%
    13:00 -7°C° 0 mm 1 mps 748 mmHg 63%
    14:00 -6°C° 0 mm 1 mps 748 mmHg 61%
    15:00 -7°C° 0 mm 1 mps 749 mmHg 66%
    16:00 -8°C° 0 mm 1 mps 749 mmHg 71%
    17:00 -9°C° 0 mm 1 mps 749 mmHg 75%
    18:00 -10°C° 0 mm 1 mps 749 mmHg 76%
    19:00 -10°C° 0 mm 1 mps 750 mmHg 76%
    20:00 -10°C° 0 mm 1 mps 750 mmHg 77%
    21:00 -10°C° 0 mm 1 mps 750 mmHg 77%
    22:00 -12°C° 0 mm 2 mps 750 mmHg 77%
    23:00 -12°C° 0 mm 2 mps 750 mmHg 77%

    Tomorrow, 20 December, Thursday

    Time Temperature Precipitation Wind Pressure Humidity
    00:00 -12°C° 0 mm 2 mps 750 mmHg 78%
    01:00 -12°C° 0 mm 2 mps 751 mmHg 78%
    02:00 -12°C° 0 mm 2 mps 751 mmHg 79%
    03:00 -12°C° 0 mm 2 mps 751 mmHg 79%
    04:00 -13°C° 0 mm 2 mps 751 mmHg 79%
    05:00 -13°C° 0 mm 2 mps 751 mmHg 80%
    06:00 -11°C° 0 mm 1 mps 751 mmHg 80%
    07:00 -11°C° 0 mm 1 mps 752 mmHg 80%
    08:00 -11°C° 0 mm 1 mps 752 mmHg 80%
    09:00 -9°C° 0 mm 1 mps 752 mmHg 74%
    10:00 -8°C° 0 mm 1 mps 752 mmHg 68%
    11:00 -7°C° 0 mm 1 mps 753 mmHg 63%
    12:00 -6°C° 0 mm 1 mps 752 mmHg 62%
    13:00 -7°C° 0 mm 2 mps 752 mmHg 62%
    14:00 -6°C° 0 mm 2 mps 752 mmHg 61%
    15:00 -7°C° 0 mm 2 mps 752 mmHg 64%
    16:00 -8°C° 0 mm 2 mps 752 mmHg 68%
    17:00 -9°C° 0 mm 2 mps 752 mmHg 71%
    18:00 -10°C° 0 mm 2 mps 752 mmHg 71%
    19:00 -10°C° 0 mm 2 mps 752 mmHg 71%
    20:00 -10°C° 0 mm 2 mps 752 mmHg 72%
    21:00 -10°C° 0 mm 2 mps 752 mmHg 71%
    22:00 -10°C° 0 mm 2 mps 752 mmHg 70%
    23:00 -10°C° 0 mm 2 mps 752 mmHg 69%

    Day after tomorrow, 21 December, Friday

    Time Temperature Precipitation Wind Pressure Humidity
    00:00 -10°C° 0 mm 2 mps 752 mmHg 69%
    01:00 -10°C° 0 mm 2 mps 751 mmHg 68%
    02:00 -12°C° 0 mm 3 mps 751 mmHg 67%
    03:00 -12°C° 0 mm 3 mps 751 mmHg 67%
    04:00 -12°C° 0 mm 3 mps 750 mmHg 67%
    05:00 -12°C° 0 mm 3 mps 750 mmHg 67%
    06:00 -10°C° 0 mm 3 mps 750 mmHg 70%
    07:00 -9°C° 0 mm 2 mps 750 mmHg 72%
    08:00 -9°C° 0 mm 2 mps 750 mmHg 75%
    09:00 -8°C° 0.1 mm 2 mps 750 mmHg 74%
    10:00 -7°C° 0.1 mm 2 mps 750 mmHg 74%
    11:00 -4°C° 0.1 mm 1 mps 750 mmHg 74%
    12:00 -4°C° 0 mm 1 mps 750 mmHg 73%
    13:00 -4°C° 0 mm 1 mps 750 mmHg 71%
    14:00 -3°C° 0 mm 1 mps 750 mmHg 70%
    15:00 -4°C° 0 mm 1 mps 750 mmHg 75%
    16:00 -7°C° 0 mm 1 mps 750 mmHg 79%
    17:00 -8°C° 0 mm 1 mps 750 mmHg 83%
    18:00 -8°C° 0 mm 1 mps 751 mmHg 84%
    19:00 -8°C° 0 mm 1 mps 751 mmHg 85%
    20:00 -10°C° 0 mm 2 mps 751 mmHg 85%
    21:00 -9°C° 0 mm 1 mps 751 mmHg 86%
    22:00 -9°C° 0 mm 1 mps 752 mmHg 86%
    23:00 -10°C° 0 mm 1 mps 752 mmHg 86%

    22 December, Saturday

    Time Temperature Precipitation Wind Pressure Humidity
    00:00 -10°C° 0 mm 1 mps 752 mmHg 86%
    01:00 -10°C° 0 mm 1 mps 752 mmHg 87%
    02:00 -10°C° 0 mm 1 mps 752 mmHg 88%
    03:00 -11°C° 0 mm 1 mps 752 mmHg 88%
    04:00 -11°C° 0 mm 1 mps 752 mmHg 88%
    05:00 -11°C° 0 mm 1 mps 752 mmHg 89%
    06:00 -11°C° 0 mm 1 mps 753 mmHg 89%
    07:00 -11°C° 0 mm 1 mps 753 mmHg 89%
    08:00 -11°C° 0 mm 1 mps 753 mmHg 89%
    09:00 -12°C° 0 mm 2 mps 754 mmHg 84%
    10:00 -10°C° 0 mm 2 mps 754 mmHg 78%
    11:00 -10°C° 0 mm 3 mps 754 mmHg 73%
    12:00 -10°C° 0 mm 4 mps 754 mmHg 67%
    13:00 -11°C° 0 mm 5 mps 754 mmHg 62%
    14:00 -11°C° 0 mm 5 mps 754 mmHg 56%
    15:00 -11°C° 0 mm 5 mps 754 mmHg 57%
    16:00 -12°C° 0 mm 5 mps 755 mmHg 58%
    17:00 -13°C° 0 mm 5 mps 756 mmHg 59%
    18:00 -15°C° 0 mm 6 mps 757 mmHg 54%
    19:00 -16°C° 0 mm 6 mps 757 mmHg 50%
    20:00 -18°C° 0 mm 7 mps 758 mmHg 46%
    21:00 -19°C° 0 mm 7 mps 758 mmHg 46%
    22:00 -20°C° 0 mm 6 mps 759 mmHg 46%
    23:00 -19°C° 0 mm 5 mps 759 mmHg 46%

    23 December, Sunday

    Time Temperature Precipitation Wind Pressure Humidity
    00:00 -20°C° 0 mm 5 mps 759 mmHg 48%
    01:00 -20°C° 0 mm 5 mps 760 mmHg 49%
    02:00 -19°C° 0 mm 4 mps 760 mmHg 51%
    03:00 -19°C° 0 mm 4 mps 759 mmHg 53%
    04:00 -20°C° 0 mm 4 mps 759 mmHg 54%
    05:00 -20°C° 0 mm 4 mps 759 mmHg 56%
    06:00 -20°C° 0 mm 4 mps 759 mmHg 55%
    07:00 -20°C° 0 mm 4 mps 759 mmHg 55%
    08:00 -19°C° 0 mm 3 mps 759 mmHg 54%
    09:00 -18°C° 0 mm 4 mps 759 mmHg 50%
    10:00 -17°C° 0 mm 4 mps 758 mmHg 46%
    11:00 -17°C° 0 mm 5 mps 758 mmHg 41%
    12:00 -15°C° 0 mm 5 mps 757 mmHg 42%
    13:00 -14°C° 0 mm 5 mps 756 mmHg 43%
    14:00 -14°C° 0 mm 5 mps 755 mmHg 43%
    15:00 -15°C° 0 mm 4 mps 755 mmHg 46%
    16:00 -14°C° 0 mm 3 mps 755 mmHg 50%
    17:00 -15°C° 0 mm 3 mps 755 mmHg 53%
    18:00 -15°C° 0 mm 3 mps 755 mmHg 51%
    19:00 -15°C° 0 mm 3 mps 754 mmHg 50%
    20:00 -16°C° 0 mm 3 mps 754 mmHg 49%
    21:00 -16°C° 0 mm 3 mps 754 mmHg 48%
    22:00 -16°C° 0 mm 3 mps 754 mmHg 47%
    23:00 -16°C° 0 mm 3 mps 753 mmHg 47%

    24 December, Monday

    Time Temperature Precipitation Wind Pressure Humidity
    00:00 -16°C° 0 mm 3 mps 753 mmHg 49%
    01:00 -17°C° 0 mm 3 mps 753 mmHg 52%
    02:00 -16°C° 0 mm 2 mps 753 mmHg 54%
    03:00 -16°C° 0 mm 2 mps 753 mmHg 54%
    04:00 -16°C° 0 mm 2 mps 752 mmHg 55%
    05:00 -16°C° 0 mm 2 mps 752 mmHg 55%
    06:00 -16°C° 0 mm 2 mps 752 mmHg 54%
    07:00 -16°C° 0 mm 2 mps 752 mmHg 53%
    08:00 -16°C° 0 mm 2 mps 752 mmHg 52%
    09:00 -16°C° 0 mm 3 mps 752 mmHg 47%
    10:00 -14°C° 0 mm 3 mps 751 mmHg 42%
    11:00 -13°C° 0 mm 3 mps 751 mmHg 37%
    12:00 -12°C° 0 mm 3 mps 750 mmHg 36%
    13:00 -12°C° 0 mm 3 mps 750 mmHg 35%
    14:00 -11°C° 0 mm 4 mps 749 mmHg 35%
    15:00 -12°C° 0 mm 3 mps 749 mmHg 36%
    16:00 -13°C° 0 mm 3 mps 748 mmHg 38%
    17:00 -13°C° 0 mm 3 mps 748 mmHg 40%
    18:00 -14°C° 0 mm 3 mps 748 mmHg 41%
    19:00 -14°C° 0 mm 3 mps 748 mmHg 43%
    20:00 -14°C° 0 mm 3 mps 748 mmHg 44%
    21:00 -15°C° 0 mm 4 mps 748 mmHg 49%
    22:00 -16°C° 0 mm 4 mps 748 mmHg 53%
    23:00 -17°C° 0 mm 5 mps 749 mmHg 58%
    Show more